| time (UTC) | temp F | wind direction | speed MPH | gust MPH | rain 1hr in | rain 24hr in | rain mn in | humidity % | barometer mb |
| 20260510090650 | 28 | 293 | 0.0 | 0.0 | 0.00 | 0.00 | 0.00 | 89 | 1009.1 |
| 20260510090101 | 28 | 293 | 0.0 | 0.0 | 0.00 | 0.00 | 0.00 | 89 | 1009.1 |
| 20260510085554 | 28 | 293 | 0.0 | 0.0 | 0.00 | 0.00 | 0.00 | 89 | 1008.9 |
| 20260510085046 | 29 | 293 | 0.0 | 0.0 | 0.00 | 0.00 | 0.00 | 90 | 1009.0 |
| 20260510084827 | 29 | 293 | 0.0 | 0.0 | 0.00 | 0.00 | 0.00 | 89 | 1009.0 |
| 20260510083957 | 29 | 293 | 0.0 | 0.0 | 0.00 | 0.00 | 0.00 | 89 | 1009.0 |
| 20260510083450 | 29 | 293 | 0.0 | 0.0 | 0.00 | 0.00 | 0.00 | 89 | 1009.0 |
| 20260510082944 | 29 | 293 | 0.0 | 0.0 | 0.00 | 0.00 | 0.00 | 89 | 1008.6 |
| 20260510082439 | 29 | 293 | 0.0 | 0.0 | 0.00 | 0.00 | 0.00 | 88 | 1008.6 |
| 20260510081911 | 29 | 293 | 0.0 | 0.0 | 0.00 | 0.00 | 0.00 | 88 | 1008.6 |
| 20260510081351 | 30 | 293 | 0.0 | 0.0 | 0.00 | 0.00 | 0.00 | 88 | 1008.6 |
| 20260510080809 | 30 | 293 | 0.0 | 0.0 | 0.00 | 0.00 | 0.00 | 87 | 1008.6 |
| 20260510080257 | 30 | 293 | 0.0 | 0.0 | 0.00 | 0.00 | 0.00 | 87 | 1008.6 |
| 20260510075758 | 30 | 293 | 0.0 | 0.0 | 0.00 | 0.00 | 0.00 | 86 | 1008.5 |
| 20260510075239 | 30 | 293 | 0.0 | 0.0 | 0.00 | 0.00 | 0.00 | 86 | 1008.5 |
| 20260510074744 | 31 | 293 | 0.0 | 0.0 | 0.00 | 0.00 | 0.00 | 86 | 1008.5 |
| 20260510074223 | 31 | 293 | 0.0 | 0.0 | 0.00 | 0.00 | 0.00 | 86 | 1008.5 |
| 20260510073653 | 31 | 293 | 0.0 | 0.0 | 0.00 | 0.00 | 0.00 | 86 | 1008.5 |
| 20260510073343 | 31 | 293 | 0.0 | 0.0 | 0.00 | 0.00 | 0.00 | 85 | 1008.5 |
| 20260510072551 | 32 | 293 | 0.0 | 0.0 | 0.00 | 0.00 | 0.00 | 85 | 1008.3 |
| 20260510072047 | 32 | 293 | 0.0 | 0.0 | 0.00 | 0.00 | 0.00 | 85 | 1008.4 |
| 20260510071545 | 33 | 293 | 0.0 | 0.0 | 0.00 | 0.00 | 0.00 | 84 | 1008.4 |
| 20260510071034 | 33 | 293 | 0.0 | 0.0 | 0.00 | 0.00 | 0.00 | 84 | 1008.3 |
| 20260510070749 | 33 | 293 | 0.0 | 0.0 | 0.00 | 0.00 | 0.00 | 83 | 1008.3 |
| 20260510070002 | 33 | 293 | 0.0 | 0.0 | 0.00 | 0.00 | 0.00 | 83 | 1008.3 |
| 20260510065458 | 34 | 293 | 0.0 | 0.0 | 0.00 | 0.00 | 0.00 | 82 | 1008.3 |
| 20260510065008 | 34 | 293 | 0.0 | 0.0 | 0.00 | 0.00 | 0.00 | 82 | 1008.3 |
| 20260510064455 | 35 | 293 | 0.0 | 0.0 | 0.00 | 0.00 | 0.00 | 82 | 1008.4 |
| 20260510064232 | 35 | 293 | 0.0 | 0.0 | 0.00 | 0.00 | 0.00 | 82 | 1008.4 |
| 20260510063444 | 35 | 293 | 0.0 | 0.0 | 0.00 | 0.00 | 0.00 | 82 | 1008.4 |
| 20260510062941 | 35 | 293 | 0.0 | 0.0 | 0.00 | 0.00 | 0.00 | 82 | 1008.4 |
| 20260510062727 | 35 | 293 | 0.0 | 0.0 | 0.00 | 0.00 | 0.00 | 82 | 1008.4 |
| 20260510062202 | 35 | 293 | 0.0 | 0.0 | 0.00 | 0.00 | 0.00 | 81 | 1008.4 |
| 20260510061350 | 35 | 293 | 0.0 | 0.0 | 0.00 | 0.00 | 0.00 | 81 | 1008.4 |
| 20260510060846 | 35 | 293 | 0.0 | 0.0 | 0.00 | 0.00 | 0.00 | 80 | 1008.4 |
| 20260510060257 | 35 | 293 | 0.0 | 0.0 | 0.00 | 0.00 | 0.00 | 78 | 1008.4 |
| 20260510060038 | 36 | 293 | 0.0 | 0.0 | 0.00 | 0.00 | 0.00 | 78 | 1008.4 |
| 20260510055245 | 36 | 293 | 0.0 | 0.0 | 0.00 | 0.00 | 0.00 | 78 | 1008.4 |
| 20260510054745 | 36 | 293 | 0.0 | 0.0 | 0.00 | 0.00 | 0.00 | 78 | 1008.5 |
| 20260510054203 | 36 | 293 | 0.0 | 0.0 | 0.00 | 0.00 | 0.00 | 78 | 1008.2 |
| 20260510053936 | 36 | 293 | 0.0 | 0.0 | 0.00 | 0.00 | 0.00 | 77 | 1008.2 |
| 20260510053145 | 36 | 293 | 0.0 | 0.0 | 0.00 | 0.00 | 0.00 | 76 | 1008.2 |
| 20260510052602 | 36 | 293 | 0.0 | 0.0 | 0.00 | 0.00 | 0.00 | 76 | 1008.0 |
| 20260510052045 | 36 | 293 | 0.0 | 0.0 | 0.00 | 0.00 | 0.00 | 76 | 1008.0 |
| 20260510051452 | 36 | 293 | 0.0 | 0.0 | 0.00 | 0.00 | 0.00 | 76 | 1008.1 |
| 20260510050948 | 36 | 293 | 0.0 | 0.0 | 0.00 | 0.00 | 0.00 | 75 | 1008.1 |
| 20260510050445 | 36 | 293 | 0.0 | 0.0 | 0.00 | 0.00 | 0.00 | 75 | 1008.1 |
| 20260510050149 | 36 | 293 | 0.0 | 0.0 | 0.00 | 0.00 | 0.00 | 74 | 1008.0 |
| 20260510045401 | 37 | 293 | 0.0 | 0.0 | 0.00 | 0.00 | 0.00 | 73 | 1008.0 |
| 20260510044859 | 37 | 293 | 0.0 | 0.0 | 0.00 | 0.00 | 0.00 | 72 | 1008.0 |
| 20260510044551 | 37 | 293 | 0.0 | 0.0 | 0.00 | 0.00 | 0.00 | 71 | 1007.8 |
| 20260510044029 | 38 | 293 | 0.0 | 0.0 | 0.00 | 0.00 | 0.00 | 71 | 1007.8 |
| 20260510043250 | 38 | 293 | 0.0 | 0.0 | 0.00 | 0.00 | 0.00 | 70 | 1007.8 |
| 20260510042701 | 38 | 293 | 0.0 | 0.0 | 0.00 | 0.00 | 0.00 | 70 | 1007.6 |
| 20260510042159 | 38 | 293 | 0.0 | 0.0 | 0.00 | 0.00 | 0.00 | 69 | 1007.6 |
| 20260510041649 | 39 | 293 | 0.0 | 0.0 | 0.00 | 0.00 | 0.00 | 69 | 1007.6 |
| 20260510041203 | 39 | 293 | 0.0 | 0.0 | 0.00 | 0.00 | 0.00 | 68 | 1007.2 |
| 20260510040110 | 39 | 292 | 0.0 | 1.0 | 0.00 | 0.00 | 0.00 | 68 | 1007.3 |
| 20260510035841 | 40 | 292 | 0.0 | 3.0 | 0.00 | 0.00 | 0.00 | 67 | 1007.1 |
| 20260510035054 | 40 | 292 | 0.0 | 3.0 | 0.00 | 0.00 | 0.00 | 67 | 1007.1 |
| 20260510034754 | 40 | 32 | 0.0 | 0.0 | 0.00 | 0.00 | 0.00 | 66 | 1006.6 |
| 20260510033951 | 40 | 31 | 0.0 | 0.0 | 0.00 | 0.00 | 0.00 | 65 | 1006.7 |
| 20260510033441 | 41 | 32 | 0.0 | 0.0 | 0.00 | 0.00 | 0.00 | 65 | 1006.7 |
| 20260510032941 | 41 | 31 | 0.0 | 0.0 | 0.00 | 0.00 | 0.00 | 64 | 1006.6 |
| 20260510032445 | 42 | 31 | 0.0 | 0.0 | 0.00 | 0.00 | 0.00 | 63 | 1006.6 |
| 20260510031941 | 42 | 31 | 0.0 | 0.0 | 0.00 | 0.00 | 0.00 | 63 | 1006.7 |
| 20260510031442 | 42 | 31 | 0.0 | 3.0 | 0.00 | 0.00 | 0.00 | 63 | 1006.5 |
| 20260510030940 | 42 | 26 | 1.0 | 5.0 | 0.00 | 0.00 | 0.00 | 62 | 1006.5 |
| 20260510030402 | 42 | 342 | 1.0 | 5.0 | 0.00 | 0.00 | 0.00 | 62 | 1006.5 |
| 20260510025902 | 43 | 208 | 0.0 | 3.0 | 0.00 | 0.00 | 0.00 | 62 | 1006.1 |
| 20260510025403 | 43 | 213 | 0.0 | 3.0 | 0.00 | 0.00 | 0.00 | 62 | 1006.2 |
| 20260510024903 | 44 | 279 | 0.0 | 1.0 | 0.00 | 0.00 | 0.00 | 61 | 1006.2 |
| 20260510024356 | 44 | 279 | 0.0 | 1.0 | 0.00 | 0.00 | 0.00 | 60 | 1005.9 |
| 20260510024143 | 45 | 279 | 0.0 | 0.0 | 0.00 | 0.00 | 0.00 | 59 | 1005.9 |
| 20260510023635 | 45 | 11 | 0.0 | 4.0 | 0.00 | 0.00 | 0.00 | 58 | 1005.9 |
| 20260510022844 | 45 | 347 | 1.0 | 4.0 | 0.00 | 0.00 | 0.00 | 57 | 1005.5 |
| 20260510022313 | 46 | 350 | 1.0 | 5.0 | 0.00 | 0.00 | 0.00 | 57 | 1005.5 |
| 20260510021812 | 46 | 302 | 1.0 | 5.0 | 0.00 | 0.00 | 0.00 | 56 | 1005.5 |
| 20260510021307 | 47 | 281 | 2.0 | 9.0 | 0.00 | 0.00 | 0.00 | 55 | 1005.2 |
| 20260510020808 | 47 | 0 | 2.0 | 9.0 | 0.00 | 0.00 | 0.00 | 53 | 1005.2 |
| 20260510020307 | 47 | 347 | 1.0 | 5.0 | 0.00 | 0.00 | 0.00 | 52 | 1005.2 |
| 20260510015805 | 47 | 42 | 1.0 | 4.0 | 0.00 | 0.00 | 0.00 | 52 | 1004.4 |
| 20260510015306 | 47 | 121 | 1.0 | 4.0 | 0.00 | 0.00 | 0.00 | 52 | 1004.5 |
| 20260510014805 | 47 | 198 | 1.0 | 4.0 | 0.00 | 0.00 | 0.00 | 51 | 1004.4 |
| 20260510014300 | 47 | 346 | 0.0 | 2.0 | 0.00 | 0.00 | 0.00 | 52 | 1003.8 |
| 20260510013753 | 47 | 343 | 0.0 | 2.0 | 0.00 | 0.00 | 0.00 | 53 | 1003.9 |
| 20260510013209 | 48 | 343 | 0.0 | 1.0 | 0.00 | 0.00 | 0.00 | 51 | 1003.9 |
| 20260510012706 | 49 | 343 | 0.0 | 1.0 | 0.00 | 0.00 | 0.00 | 50 | 1003.6 |
| 20260510012454 | 49 | 343 | 0.0 | 1.0 | 0.00 | 0.00 | 0.00 | 49 | 1003.6 |
| 20260510011947 | 50 | 343 | 0.0 | 0.0 | 0.00 | 0.00 | 0.00 | 49 | 1003.7 |
| 20260510011150 | 51 | 343 | 0.0 | 1.0 | 0.00 | 0.00 | 0.00 | 48 | 1003.2 |
| 20260510010613 | 51 | 343 | 0.0 | 2.0 | 0.00 | 0.00 | 0.00 | 47 | 1003.4 |
| 20260510005549 | 53 | 343 | 0.0 | 1.0 | 0.00 | 0.00 | 0.00 | 47 | 1003.1 |
| 20260510005045 | 53 | 343 | 0.0 | 2.0 | 0.00 | 0.00 | 0.00 | 45 | 1003.1 |
| 20260510004503 | 53 | 343 | 1.0 | 2.0 | 0.00 | 0.00 | 0.00 | 44 | 1003.0 |
| 20260510004254 | 54 | 269 | 1.0 | 5.0 | 0.00 | 0.00 | 0.00 | 44 | 1003.1 |
| 20260510003743 | 54 | 326 | 1.0 | 5.0 | 0.00 | 0.00 | 0.00 | 44 | 1003.1 |
| 20260510002955 | 55 | 333 | 1.0 | 3.0 | 0.00 | 0.00 | 0.00 | 44 | 1002.7 |
| 20260510002753 | 55 | 317 | 1.0 | 6.0 | 0.00 | 0.00 | 0.00 | 43 | 1002.7 |
| 20260510001949 | 55 | 321 | 2.0 | 6.0 | 0.00 | 0.00 | 0.00 | 44 | 1002.7 |
| 20260510001416 | 56 | 336 | 1.0 | 4.0 | 0.00 | 0.00 | 0.00 | 44 | 1002.6 |
| 20260510001034 | 56 | 299 | 2.0 | 6.0 | 0.00 | 0.00 | 0.00 | 46 | 1002.7 |
| 20260510001010 | 56 | 330 | 2.0 | 6.0 | 0.00 | 0.00 | 0.00 | 46 | 1002.6 |
| 20260510000207 | 56 | 293 | 2.0 | 8.0 | 0.00 | 0.00 | 0.00 | 46 | 1002.3 |
| 20260509235406 | 56 | 271 | 2.0 | 8.0 | 0.00 | 0.00 | 0.00 | 48 | 1002.3 |
| 20260509235213 | 56 | 344 | 2.0 | 8.0 | 0.00 | 0.00 | 0.00 | 46 | 1002.3 |
| 20260509234402 | 56 | 315 | 2.0 | 8.0 | 0.00 | 0.00 | 0.00 | 47 | 1002.2 |
| 20260509233902 | 57 | 325 | 1.0 | 5.0 | 0.00 | 0.00 | 0.00 | 48 | 1002.2 |
| 20260509233405 | 57 | 261 | 1.0 | 5.0 | 0.00 | 0.00 | 0.00 | 48 | 1002.3 |
| 20260509232857 | 58 | 296 | 1.0 | 4.0 | 0.00 | 0.00 | 0.00 | 48 | 1002.3 |
| 20260509232658 | 58 | 291 | 1.0 | 5.0 | 0.00 | 0.00 | 0.00 | 48 | 1002.3 |
| 20260509231816 | 58 | 293 | 1.0 | 5.0 | 0.00 | 0.00 | 0.00 | 49 | 1002.3 |
| 20260509231313 | 58 | 309 | 1.0 | 4.0 | 0.00 | 0.00 | 0.00 | 47 | 1002.2 |
| 20260509231110 | 58 | 299 | 2.0 | 8.0 | 0.00 | 0.00 | 0.00 | 47 | 1002.2 |
| 20260509230309 | 59 | 337 | 2.0 | 8.0 | 0.00 | 0.00 | 0.00 | 47 | 1002.3 |
| 20260509225803 | 59 | 143 | 2.0 | 7.0 | 0.00 | 0.00 | 0.00 | 46 | 1001.9 |
| 20260509225607 | 59 | 281 | 2.0 | 7.0 | 0.00 | 0.00 | 0.00 | 48 | 1001.9 |
| 20260509224759 | 59 | 290 | 3.0 | 11.0 | 0.00 | 0.00 | 0.00 | 45 | 1001.9 |
| 20260509224300 | 59 | 332 | 5.0 | 11.0 | 0.00 | 0.00 | 0.00 | 45 | 1001.9 |
| 20260509224100 | 59 | 267 | 3.0 | 11.0 | 0.00 | 0.00 | 0.00 | 44 | 1001.9 |
| 20260509223257 | 59 | 239 | 2.0 | 5.0 | 0.00 | 0.00 | 0.00 | 46 | 1001.9 |
| 20260509222752 | 59 | 316 | 3.0 | 8.0 | 0.00 | 0.00 | 0.00 | 46 | 1001.7 |
| 20260509222244 | 59 | 314 | 3.0 | 8.0 | 0.00 | 0.00 | 0.00 | 45 | 1001.7 |
| 20260509221744 | 59 | 9 | 3.0 | 7.0 | 0.00 | 0.00 | 0.00 | 47 | 1001.7 |
| 20260509221241 | 59 | 318 | 5.0 | 13.0 | 0.00 | 0.00 | 0.00 | 48 | 1001.4 |
| 20260509220732 | 59 | 271 | 5.0 | 13.0 | 0.00 | 0.00 | 0.00 | 46 | 1001.4 |
| 20260509220209 | 59 | 236 | 4.0 | 11.0 | 0.00 | 0.00 | 0.00 | 48 | 1001.4 |
| 20260509215709 | 60 | 314 | 6.0 | 13.0 | 0.00 | 0.00 | 0.00 | 47 | 1001.3 |
| 20260509215205 | 60 | 284 | 5.0 | 13.0 | 0.00 | 0.00 | 0.00 | 46 | 1001.3 |
| 20260509214703 | 60 | 13 | 4.0 | 12.0 | 0.00 | 0.00 | 0.00 | 47 | 1001.3 |
| 20260509214203 | 59 | 257 | 5.0 | 12.0 | 0.00 | 0.00 | 0.00 | 46 | 1001.0 |
| 20260509213701 | 59 | 269 | 4.0 | 12.0 | 0.00 | 0.00 | 0.00 | 46 | 1000.9 |
| 20260509213202 | 58 | 262 | 5.0 | 12.0 | 0.00 | 0.00 | 0.00 | 48 | 1000.9 |
| 20260509213006 | 58 | 240 | 5.0 | 11.0 | 0.00 | 0.00 | 0.00 | 46 | 1000.8 |
| 20260509212200 | 59 | 318 | 4.0 | 8.0 | 0.00 | 0.00 | 0.00 | 45 | 1000.8 |
| 20260509211700 | 58 | 294 | 4.0 | 10.0 | 0.00 | 0.00 | 0.00 | 46 | 1000.8 |
| 20260509211200 | 58 | 265 | 3.0 | 10.0 | 0.00 | 0.00 | 0.00 | 44 | 1000.7 |
| 20260509210657 | 59 | 276 | 3.0 | 9.0 | 0.00 | 0.00 | 0.00 | 44 | 1000.7 |
| 20260509210157 | 59 | 348 | 3.0 | 9.0 | 0.00 | 0.00 | 0.00 | 44 | 1000.7 |
| 20260509205657 | 60 | 336 | 2.0 | 6.0 | 0.00 | 0.00 | 0.00 | 43 | 1000.4 |
| 20260509205157 | 60 | 5 | 4.0 | 11.0 | 0.00 | 0.00 | 0.00 | 43 | 1000.4 |
| 20260509205002 | 60 | 355 | 5.0 | 11.0 | 0.00 | 0.00 | 0.00 | 41 | 1000.4 |
| 20260509204154 | 61 | 327 | 6.0 | 14.0 | 0.00 | 0.00 | 0.00 | 42 | 1000.3 |
| 20260509203653 | 61 | 275 | 4.0 | 14.0 | 0.00 | 0.00 | 0.00 | 41 | 1000.3 |
| 20260509203310 | 61 | 309 | 6.0 | 19.0 | 0.00 | 0.00 | 0.00 | 41 | 1000.0 |
| 20260509203245 | 61 | 244 | 5.0 | 19.0 | 0.00 | 0.00 | 0.00 | 42 | 1000.3 |
| 20260509202152 | 61 | 289 | 5.0 | 19.0 | 0.00 | 0.00 | 0.00 | 41 | 1000.0 |
| 20260509201634 | 62 | 277 | 5.0 | 19.0 | 0.00 | 0.00 | 0.00 | 40 | 1000.0 |
| 20260509201132 | 61 | 326 | 4.0 | 13.0 | 0.00 | 0.00 | 0.00 | 42 | 999.7 |
| 20260509200728 | 61 | 238 | 7.0 | 16.0 | 0.00 | 0.00 | 0.00 | 42 | 999.7 |
| 20260509200701 | 61 | 259 | 5.0 | 15.0 | 0.00 | 0.00 | 0.00 | 41 | 999.7 |
| 20260509195611 | 62 | 301 | 7.0 | 16.0 | 0.00 | 0.00 | 0.00 | 40 | 999.7 |
| 20260509195110 | 62 | 264 | 6.0 | 16.0 | 0.00 | 0.00 | 0.00 | 40 | 999.8 |
| 20260509194917 | 62 | 281 | 6.0 | 16.0 | 0.00 | 0.00 | 0.00 | 41 | 999.8 |
| 20260509194109 | 62 | 39 | 6.0 | 14.0 | 0.00 | 0.00 | 0.00 | 44 | 999.7 |
| 20260509193609 | 62 | 272 | 5.0 | 14.0 | 0.00 | 0.00 | 0.00 | 45 | 999.7 |
| 20260509193107 | 62 | 242 | 5.0 | 13.0 | 0.00 | 0.00 | 0.00 | 48 | 999.7 |
| 20260509192918 | 61 | 300 | 4.0 | 13.0 | 0.00 | 0.00 | 0.00 | 47 | 999.5 |
| 20260509192400 | 61 | 268 | 4.0 | 16.0 | 0.00 | 0.00 | 0.00 | 52 | 999.5 |
| 20260509191557 | 61 | 333 | 4.0 | 16.0 | 0.00 | 0.00 | 0.00 | 51 | 999.5 |
| 20260509191356 | 60 | 305 | 4.0 | 9.0 | 0.00 | 0.00 | 0.00 | 54 | 999.7 |
| 20260509190554 | 60 | 198 | 5.0 | 10.0 | 0.00 | 0.00 | 0.00 | 55 | 999.6 |
| 20260509190106 | 60 | 206 | 4.0 | 10.0 | 0.00 | 0.00 | 0.00 | 54 | 999.6 |
| 20260509185545 | 59 | 277 | 4.0 | 10.0 | 0.00 | 0.00 | 0.00 | 55 | 999.6 |
| 20260509185037 | 58 | 290 | 3.0 | 10.0 | 0.00 | 0.00 | 0.00 | 54 | 999.5 |
| 20260509184537 | 58 | 306 | 3.0 | 13.0 | 0.00 | 0.00 | 0.00 | 56 | 999.5 |
| 20260509184015 | 58 | 290 | 4.0 | 13.0 | 0.00 | 0.00 | 0.00 | 56 | 999.3 |
| 20260509183517 | 58 | 242 | 3.0 | 8.0 | 0.00 | 0.00 | 0.00 | 58 | 999.3 |
| 20260509183003 | 58 | 268 | 3.0 | 10.0 | 0.00 | 0.00 | 0.00 | 59 | 999.3 |
| 20260509182505 | 57 | 286 | 4.0 | 10.0 | 0.00 | 0.00 | 0.00 | 60 | 999.2 |
| 20260509182003 | 57 | 208 | 3.0 | 8.0 | 0.00 | 0.00 | 0.00 | 59 | 999.2 |
| 20260509181503 | 57 | 271 | 3.0 | 9.0 | 0.00 | 0.00 | 0.00 | 60 | 999.3 |
| 20260509181120 | 57 | 227 | 4.0 | 10.0 | 0.00 | 0.00 | 0.00 | 59 | 999.4 |
| 20260509181053 | 57 | 209 | 4.0 | 10.0 | 0.00 | 0.00 | 0.00 | 59 | 999.4 |
| 20260509180001 | 58 | 267 | 4.0 | 10.0 | 0.00 | 0.00 | 0.00 | 59 | 999.2 |
| 20260509175504 | 57 | 245 | 4.0 | 13.0 | 0.00 | 0.00 | 0.00 | 59 | 999.2 |
| 20260509175001 | 57 | 259 | 4.0 | 13.0 | 0.00 | 0.00 | 0.00 | 60 | 999.2 |
| 20260509174458 | 57 | 214 | 4.0 | 9.0 | 0.00 | 0.00 | 0.00 | 61 | 999.1 |
| 20260509173951 | 57 | 270 | 4.0 | 12.0 | 0.00 | 0.00 | 0.00 | 61 | 999.1 |
| 20260509173447 | 57 | 263 | 4.0 | 12.0 | 0.00 | 0.00 | 0.00 | 61 | 999.1 |
| 20260509172946 | 57 | 271 | 4.0 | 13.0 | 0.00 | 0.00 | 0.00 | 63 | 999.3 |
| 20260509172446 | 57 | 279 | 3.0 | 13.0 | 0.00 | 0.00 | 0.00 | 63 | 999.3 |
| 20260509171945 | 57 | 277 | 4.0 | 9.0 | 0.00 | 0.00 | 0.00 | 65 | 999.4 |
| 20260509171445 | 57 | 215 | 3.0 | 9.0 | 0.00 | 0.00 | 0.00 | 67 | 999.4 |
| 20260509170956 | 57 | 240 | 2.0 | 8.0 | 0.00 | 0.00 | 0.00 | 68 | 999.5 |
| 20260509170443 | 56 | 268 | 2.0 | 7.0 | 0.00 | 0.00 | 0.00 | 70 | 999.4 |
| 20260509165945 | 56 | 253 | 2.0 | 7.0 | 0.00 | 0.00 | 0.00 | 73 | 999.4 |
| 20260509165432 | 55 | 248 | 3.0 | 6.0 | 0.00 | 0.00 | 0.00 | 74 | 999.3 |
| 20260509164931 | 54 | 277 | 3.0 | 7.0 | 0.00 | 0.00 | 0.00 | 76 | 999.2 |
| 20260509164411 | 53 | 296 | 3.0 | 8.0 | 0.00 | 0.00 | 0.00 | 77 | 999.5 |
| 20260509164212 | 52 | 331 | 3.0 | 8.0 | 0.00 | 0.00 | 0.00 | 76 | 999.4 |
| 20260509163401 | 52 | 265 | 3.0 | 7.0 | 0.00 | 0.00 | 0.00 | 78 | 999.4 |
| 20260509162901 | 52 | 217 | 3.0 | 7.0 | 0.00 | 0.00 | 0.00 | 79 | 999.3 |
| 20260509162400 | 52 | 284 | 3.0 | 8.0 | 0.00 | 0.00 | 0.00 | 79 | 999.3 |
| 20260509161900 | 52 | 261 | 3.0 | 8.0 | 0.00 | 0.00 | 0.00 | 77 | 999.3 |
| 20260509161358 | 53 | 275 | 4.0 | 16.0 | 0.00 | 0.00 | 0.00 | 74 | 999.5 |
| 20260509160858 | 53 | 0 | 5.0 | 16.0 | 0.00 | 0.00 | 0.00 | 72 | 999.6 |
| 20260509160357 | 54 | 273 | 5.0 | 15.0 | 0.00 | 0.00 | 0.00 | 68 | 999.7 |
| 20260509155856 | 55 | 305 | 5.0 | 15.0 | 0.00 | 0.00 | 0.00 | 64 | 999.3 |
| 20260509155355 | 55 | 225 | 5.0 | 9.0 | 0.00 | 0.00 | 0.00 | 61 | 999.3 |
| 20260509154855 | 56 | 284 | 4.0 | 9.0 | 0.00 | 0.00 | 0.00 | 62 | 999.4 |
| 20260509154356 | 56 | 273 | 4.0 | 11.0 | 0.00 | 0.00 | 0.00 | 62 | 998.6 |
| 20260509153900 | 56 | 271 | 3.0 | 11.0 | 0.00 | 0.00 | 0.00 | 60 | 998.6 |
| 20260509153354 | 56 | 314 | 2.0 | 8.0 | 0.00 | 0.00 | 0.00 | 61 | 998.6 |
| 20260509152854 | 56 | 339 | 3.0 | 8.0 | 0.00 | 0.00 | 0.00 | 64 | 998.4 |
| 20260509152357 | 56 | 263 | 5.0 | 14.0 | 0.00 | 0.00 | 0.00 | 66 | 998.4 |
| 20260509151852 | 56 | 259 | 4.0 | 14.0 | 0.00 | 0.00 | 0.00 | 67 | 998.4 |
| 20260509151350 | 56 | 265 | 4.0 | 10.0 | 0.00 | 0.00 | 0.00 | 67 | 998.0 |
| 20260509150850 | 56 | 292 | 4.0 | 10.0 | 0.00 | 0.00 | 0.00 | 67 | 998.0 |
| 20260509150348 | 56 | 275 | 3.0 | 7.0 | 0.00 | 0.00 | 0.00 | 68 | 998.0 |
| 20260509145847 | 56 | 278 | 4.0 | 11.0 | 0.00 | 0.00 | 0.00 | 69 | 997.8 |
| 20260509145645 | 57 | 259 | 5.0 | 12.0 | 0.00 | 0.00 | 0.00 | 68 | 997.8 |
| 20260509144836 | 57 | 292 | 7.0 | 18.0 | 0.00 | 0.00 | 0.00 | 67 | 997.8 |
| 20260509144309 | 57 | 242 | 7.0 | 18.0 | 0.00 | 0.00 | 0.00 | 67 | 997.4 |
| 20260509143810 | 58 | 237 | 5.0 | 15.0 | 0.00 | 0.00 | 0.00 | 67 | 997.5 |
| 20260509143307 | 58 | 264 | 5.0 | 13.0 | 0.00 | 0.00 | 0.00 | 69 | 997.5 |
| 20260509143113 | 58 | 242 | 6.0 | 13.0 | 0.00 | 0.00 | 0.00 | 69 | 997.4 |
| 20260509142307 | 58 | 310 | 4.0 | 13.0 | 0.00 | 0.00 | 0.00 | 69 | 997.4 |
| 20260509141808 | 57 | 271 | 4.0 | 10.0 | 0.00 | 0.00 | 0.00 | 71 | 997.4 |
| 20260509141308 | 57 | 256 | 5.0 | 12.0 | 0.00 | 0.00 | 0.00 | 72 | 997.3 |
| 20260509140811 | 57 | 252 | 6.0 | 14.0 | 0.00 | 0.00 | 0.00 | 71 | 997.3 |
| 20260509140308 | 57 | 277 | 5.0 | 14.0 | 0.00 | 0.00 | 0.00 | 71 | 997.3 |
| 20260509135804 | 58 | 259 | 5.0 | 11.0 | 0.00 | 0.00 | 0.00 | 71 | 997.0 |
| 20260509135611 | 57 | 229 | 5.0 | 11.0 | 0.00 | 0.00 | 0.00 | 71 | 997.0 |
| 20260509134802 | 58 | 247 | 5.0 | 9.0 | 0.00 | 0.00 | 0.00 | 71 | 997.0 |
| 20260509134302 | 58 | 198 | 6.0 | 16.0 | 0.00 | 0.00 | 0.00 | 72 | 997.3 |
| 20260509133800 | 57 | 254 | 7.0 | 16.0 | 0.00 | 0.00 | 0.00 | 73 | 997.3 |
| 20260509133259 | 57 | 254 | 6.0 | 14.0 | 0.00 | 0.00 | 0.00 | 73 | 997.2 |
| 20260509132757 | 57 | 212 | 6.0 | 14.0 | 0.00 | 0.00 | 0.00 | 74 | 997.1 |
| 20260509132258 | 57 | 241 | 6.0 | 12.0 | 0.00 | 0.00 | 0.00 | 74 | 997.1 |
| 20260509131757 | 56 | 223 | 5.0 | 13.0 | 0.00 | 0.00 | 0.00 | 75 | 997.1 |
| 20260509131256 | 56 | 275 | 5.0 | 13.0 | 0.00 | 0.00 | 0.00 | 76 | 997.0 |
| 20260509130758 | 56 | 226 | 6.0 | 12.0 | 0.00 | 0.00 | 0.00 | 77 | 997.0 |
| 20260509130256 | 56 | 204 | 7.0 | 13.0 | 0.00 | 0.00 | 0.00 | 77 | 997.0 |
| 20260509125754 | 56 | 202 | 6.0 | 15.0 | 0.00 | 0.00 | 0.00 | 79 | 997.0 |
| 20260509125257 | 55 | 171 | 5.0 | 15.0 | 0.00 | 0.00 | 0.00 | 79 | 996.9 |
| 20260509124756 | 55 | 213 | 5.0 | 10.0 | 0.00 | 0.00 | 0.00 | 80 | 996.9 |
| 20260509124408 | 54 | 232 | 5.0 | 9.0 | 0.00 | 0.00 | 0.00 | 80 | 997.0 |
| 20260509124345 | 55 | 209 | 5.0 | 9.0 | 0.00 | 0.00 | 0.00 | 80 | 997.0 |
| 20260509123253 | 54 | 215 | 5.0 | 10.0 | 0.00 | 0.00 | 0.00 | 81 | 997.0 |
| 20260509122751 | 54 | 229 | 4.0 | 10.0 | 0.00 | 0.00 | 0.00 | 81 | 996.9 |
| 20260509122250 | 54 | 201 | 5.0 | 11.0 | 0.00 | 0.00 | 0.00 | 82 | 996.8 |
| 20260509121733 | 53 | 203 | 5.0 | 11.0 | 0.00 | 0.00 | 0.00 | 82 | 996.8 |
| 20260509121232 | 53 | 182 | 4.0 | 9.0 | 0.00 | 0.00 | 0.00 | 83 | 997.3 |
| 20260509121015 | 53 | 152 | 4.0 | 12.0 | 0.00 | 0.00 | 0.00 | 83 | 997.3 |
| 20260509120217 | 53 | 217 | 4.0 | 12.0 | 0.00 | 0.00 | 0.00 | 83 | 997.2 |
| 20260509120018 | 52 | 221 | 4.0 | 9.0 | 0.00 | 0.00 | 0.00 | 84 | 997.3 |
| 20260509115212 | 52 | 200 | 4.0 | 9.0 | 0.00 | 0.00 | 0.00 | 84 | 997.3 |
| 20260509114708 | 52 | 194 | 4.0 | 7.0 | 0.00 | 0.00 | 0.00 | 85 | 997.3 |
| 20260509114531 | 51 | 227 | 5.0 | 9.0 | 0.00 | 0.00 | 0.00 | 85 | 997.2 |
| 20260509113705 | 51 | 222 | 4.0 | 9.0 | 0.00 | 0.00 | 0.00 | 85 | 997.2 |
| 20260509113209 | 51 | 213 | 4.0 | 8.0 | 0.00 | 0.00 | 0.00 | 85 | 997.2 |
| 20260509112706 | 50 | 229 | 3.0 | 8.0 | 0.00 | 0.00 | 0.00 | 85 | 997.5 |
| 20260509112514 | 50 | 194 | 3.0 | 7.0 | 0.00 | 0.00 | 0.00 | 85 | 997.5 |
| 20260509112000 | 50 | 193 | 3.0 | 8.0 | 0.00 | 0.00 | 0.00 | 85 | 997.5 |
| 20260509111206 | 50 | 175 | 3.0 | 8.0 | 0.00 | 0.00 | 0.00 | 85 | 997.3 |
| 20260509110706 | 50 | 169 | 3.0 | 7.0 | 0.00 | 0.00 | 0.00 | 85 | 997.3 |
| 20260509110203 | 50 | 192 | 4.0 | 10.0 | 0.00 | 0.00 | 0.00 | 85 | 997.3 |
| 20260509105703 | 50 | 227 | 4.0 | 10.0 | 0.00 | 0.00 | 0.00 | 84 | 997.2 |
| 20260509105201 | 50 | 252 | 4.0 | 8.0 | 0.00 | 0.00 | 0.00 | 84 | 997.2 |
| 20260509104702 | 50 | 186 | 4.0 | 8.0 | 0.00 | 0.00 | 0.00 | 84 | 997.2 |
| 20260509104200 | 50 | 219 | 3.0 | 7.0 | 0.00 | 0.00 | 0.00 | 84 | 997.2 |
| 20260509103700 | 50 | 196 | 3.0 | 7.0 | 0.00 | 0.00 | 0.00 | 83 | 997.2 |
| 20260509103155 | 50 | 211 | 4.0 | 7.0 | 0.00 | 0.00 | 0.00 | 82 | 997.2 |
| 20260509102653 | 50 | 146 | 4.0 | 7.0 | 0.00 | 0.00 | 0.00 | 82 | 997.4 |
| 20260509102453 | 50 | 241 | 3.0 | 7.0 | 0.00 | 0.00 | 0.00 | 82 | 997.4 |
| 20260509101649 | 50 | 207 | 3.0 | 7.0 | 0.00 | 0.00 | 0.00 | 81 | 997.4 |
| 20260509101457 | 50 | 246 | 4.0 | 10.0 | 0.00 | 0.00 | 0.00 | 81 | 997.6 |
| 20260509100631 | 50 | 200 | 4.0 | 10.0 | 0.00 | 0.00 | 0.00 | 80 | 997.6 |
| 20260509100418 | 49 | 190 | 3.0 | 7.0 | 0.00 | 0.00 | 0.00 | 80 | 997.6 |
| 20260509095607 | 49 | 214 | 3.0 | 6.0 | 0.00 | 0.00 | 0.00 | 78 | 997.9 |
| 20260509095107 | 49 | 198 | 3.0 | 7.0 | 0.00 | 0.00 | 0.00 | 77 | 997.8 |
| 20260509094558 | 49 | 174 | 3.0 | 7.0 | 0.00 | 0.00 | 0.00 | 76 | 997.8 |
| 20260509094059 | 49 | 195 | 2.0 | 7.0 | 0.00 | 0.00 | 0.00 | 74 | 998.2 |
| 20260509093600 | 49 | 182 | 2.0 | 6.0 | 0.00 | 0.00 | 0.00 | 73 | 998.2 |
| 20260509093103 | 49 | 198 | 2.0 | 6.0 | 0.00 | 0.00 | 0.00 | 72 | 998.2 |
| 20260509092557 | 49 | 195 | 3.0 | 6.0 | 0.00 | 0.00 | 0.00 | 71 | 998.3 |
| 20260509092058 | 49 | 135 | 3.0 | 6.0 | 0.00 | 0.00 | 0.00 | 70 | 998.3 |
| 20260509091552 | 49 | 173 | 2.0 | 6.0 | 0.00 | 0.00 | 0.00 | 69 | 998.3 |